User: anonymous   Login
Location: La Tine
(46.4708°N, 7.0525°E)
Time: 10:55:37
(UTC+00:00)
Language:

FENGYUN 1C DEB - Orbit

View from above orbital plane
View from above orbital plane
View from above satellite
View from above satellite

Ground track
Ground track

The orbit data is extracted from the following two-line orbital elements,

1 30770U 99025AUG 21263.91842976  .00000088  00000-0  69943-4 0  9993
2 30770  98.7483 291.4346 0013986  16.3741 103.3736 14.13182190750876
Epoch (UTC): 20 September 2021 22:02:32
Eccentricity: 0.0013986
inclination: 98.7483°
perigee height: 838 km
apogee height: 858 km
right ascension of ascending node: 291.4346°
argument of perigee: 16.3741°
revolutions per day: 14.13182190
mean anomaly at epoch: 103.3736°
orbit number at epoch: 75087

The dashed part of the orbit path shows where the satellite is in the earth's shadow,  

DLR